Retour au catalogue

OPS 9390

ActifMilitaireMEO
NORAD 6317·PAYLOAD·🇺🇸 United States

Lancé Dec 20, 1972 depuis Cape Canaveral Space Force Station

Loading…

Prochains Passages (prochaines 24 heures)

TLE

FraisSource: Space-Track

Époque: Sep 14, 2026, 09:11 UTC

1 06317U 72101A   26257.38314517 -.00000412  00000-0  00000-0 0  9990
2 06317   8.9341 231.7691 1213018 117.2398 266.6477  1.00328390 26417

Suivez OPS 9390 en temps réel avec AllMySat

Download on the App Store